TimeCST,TemperatureF,Dew PointF,Humidity,Sea Level PressureIn,VisibilityMPH,Wind Direction,Wind SpeedMPH,Gust SpeedMPH,PrecipitationIn,Events,Conditions,WindDirDegrees,DateUTC
12:53 AM,46.9,43.0,86,30.38,10.0,Calm,Calm,-,N/A,,Clear,0,2013-11-08 06:53:00
1:53 AM,44.1,42.1,93,30.38,10.0,Calm,Calm,-,N/A,,Clear,0,2013-11-08 07:53:00
2:53 AM,45.0,42.1,90,30.37,10.0,Calm,Calm,-,N/A,,Clear,0,2013-11-08 08:53:00
3:53 AM,45.0,42.1,90,30.37,10.0,Calm,Calm,-,N/A,,Clear,0,2013-11-08 09:53:00
4:53 AM,44.1,41.0,89,30.37,10.0,Calm,Calm,-,N/A,,Clear,0,2013-11-08 10:53:00
5:53 AM,41.0,39.9,96,30.36,8.0,Calm,Calm,-,N/A,,Clear,0,2013-11-08 11:53:00
6:53 AM,43.0,41.0,93,30.37,10.0,Calm,Calm,-,N/A,,Clear,0,2013-11-08 12:53:00
7:53 AM,46.0,44.1,93,30.38,10.0,Calm,Calm,-,N/A,,Clear,0,2013-11-08 13:53:00
8:53 AM,52.0,46.0,80,30.38,10.0,Calm,Calm,-,N/A,,Clear,0,2013-11-08 14:53:00
9:53 AM,55.9,45.0,67,30.38,10.0,Calm,Calm,-,N/A,,Clear,0,2013-11-08 15:53:00
10:53 AM,60.1,43.0,53,30.35,10.0,ESE,5.8,-,N/A,,Clear,110,2013-11-08 16:53:00
11:53 AM,62.1,43.0,50,30.33,10.0,South,5.8,-,N/A,,Clear,180,2013-11-08 17:53:00
12:53 PM,62.1,42.1,48,30.29,10.0,SE,4.6,-,N/A,,Clear,140,2013-11-08 18:53:00
1:53 PM,61.0,39.9,46,30.27,10.0,SE,4.6,-,N/A,,Clear,130,2013-11-08 19:53:00
2:53 PM,61.0,43.0,52,30.26,10.0,Calm,Calm,-,N/A,,Clear,0,2013-11-08 20:53:00
3:53 PM,61.0,43.0,52,30.26,10.0,SE,4.6,-,N/A,,Clear,140,2013-11-08 21:53:00
4:53 PM,59.0,44.1,58,30.25,10.0,Calm,Calm,-,N/A,,Clear,0,2013-11-08 22:53:00
5:53 PM,55.0,46.9,74,30.23,10.0,ESE,3.5,-,N/A,,Clear,110,2013-11-08 23:53:00
6:53 PM,57.0,45.0,64,30.23,10.0,Calm,Calm,-,N/A,,Clear,0,2013-11-09 00:53:00
7:53 PM,54.0,46.9,77,30.23,10.0,Calm,Calm,-,N/A,,Clear,0,2013-11-09 01:53:00
8:53 PM,53.1,46.9,80,30.23,10.0,Calm,Calm,-,N/A,,Clear,0,2013-11-09 02:53:00
9:53 PM,52.0,46.9,83,30.21,10.0,Calm,Calm,-,N/A,,Clear,0,2013-11-09 03:53:00
10:53 PM,51.1,46.9,86,30.20,10.0,Calm,Calm,-,N/A,,Clear,0,2013-11-09 04:53:00
11:53 PM,53.1,48.0,83,30.19,10.0,SSE,4.6,-,N/A,,Clear,150,2013-11-09 05:53:00